EHI
0 0 0 1 1 2 2 2 2 1 2 4 6 7 4 4 7 8 8 5 3 3 2 2 3 3 3 2 2 2 1 0 0 0 0 0 0 1 1 1 0 0 0
0 0 1 1 1 1 1 2 2 1 1 3 4 5 4 3 3 5 5 4 3 2 1 1 1 1 1 1 1 1 0 0 0 0 0 0 0 0 0 0 1 1 0
0 0 1 2 2 1 0 1 1 0 1 2 3 4 3 1 0 1 2 2 1 1 0 1 1 0 0 0 0 0 0 0 0 0 0 0 0 0 0 0 1 1 1
0 0 1 2 3 1 0 0 0 0 0 1 2 3 3 1 0 0 0 0 0 0 1 2 2 1 1 0 0 0 0 0 0 0 0 0 0 0 0 0 1 1 0
0 0 1 2 3 2 1 0 0 0 0 0 1 2 3 3 1 1 1 0 0 0 1 2 2 2 1 0 0 0 0 0 0 0 0 0 0 0 0 0 0 0 0
0 0 1 2 3 2 1 0 0 0 0 0 0 1 2 3 2 2 2 1 0 0 0 1 1 1 0 0 0 0 0 0 0 0 0 0 0 0 0 0 0 0 0
0 0 0 1 1 1 1 1 1 1 1 0 0 0 1 1 1 2 2 1 0 0 0 0 0 0 0 1 0 0 0 0 0 0 0 0 0 0 0 1 1 1 0
0 0 0 0 0 0 1 1 2 2 1 0 0 0 0 0 0 1 1 0 0 0 1 1 1 0 0 0 0 0 0 0 0 0 0 0 0 0 0 1 2 1 1
0 0 0 0 0 0 0 1 1 1 1 0 0 0 0 0 0 0 0 0 0 0 1 1 1 0 0 0 1 1 1 0 0 0 0 0 0 0 0 1 2 2 2
0 0 0 0 0 0 0 0 0 0 0 0 0 0 0 0 0 0 0 0 0 0 1 1 0 0 0 0 1 2 1 0 0 0 0 0 0 0 0 0 1 2 2
0 0 0 0 0 0 0 0 0 0 0 0 0 0 0 0 0 0 0 0 0 0 0 0 0 0 0 0 1 1 1 0 0 0 0 0 0 0 0 0 0 1 1
0 0 0 0 0 0 0 0 0 0 0 0 0 0 0 0 0 0 0 0 0 0 0 0 0 0 0 0 0 0 0 0 0 0 0 0 0 0 0 0 0 0 0
0 0 0 0 0 0 0 0 0 0 0 0 0 0 0 0 0 0 0 0 0 0 0 0 0 0 0 0 0 0 0 0 0 0 0 0 0 0 0 0 0 0 0
0 0 0 0 0 0 0 0 0 0 0 0 0 0 0 0 0 0 0 0 0 0 0 0 0 0 0 0 0 0 0 0 0 0 0 0 0 0 0 0 0 0 0
0 0 0 0 0 0 0 0 0 0 0 0 0 0 0 0 0 0 0 0 0 0 0 0 0 0 0 0 0 0 0 0 0 0 0 0 0 0 0 0 0 0 0
0 0 0 0 0 0 0 0 0 0 0 0 0 0 0 0 0 0 0 0 0 0 0 0 0 0 0 0 0 0 0 0 0 0 0 0 0 0 0 0 0 0 0
0 0 0 0 0 0 0 0 0 0 0 0 0 0 0 0 0 0 0 0 0 0 0 0 0 0 0 0 0 0 0 0 0 0 0 0 0 0 1 1 1 1 1
0 0 0 0 0 0 0 0 0 0 0 0 0 0 0 0 0 0 0 0 0 0 0 0 0 0 0 0 0 0 0 0 0 0 0 0 0 0 1 2 3 3 3
0 0 0 0 0 0 0 0 0 0 0 0 0 0 0 0 0 0 0 0 0 0 0 0 0 0 0 0 0 0 0 0 0 0 0 0 0 0 1 1 2 3 4
0 0 0 0 0 0 0 0 0 0 0 0 0 0 0 0 0 0 0 0 0 0 0 0 0 0 0 0 0 0 0 0 0 0 0 0 0 0 0 0 1 1 1
0 0 0 0 0 0 0 0 0 0 0 0 0 0 0 0 0 0 0 0 0 0 0 0 0 0 0 0 0 0 0 0 0 0 0 0 0 0 0 0 0 0 0
0 0 0 0 0 0 0 0 0 0 0 0 0 0 0 0 0 0 0 0 0 0 0 0 0 0 0 0 0 0 0 0 0 0 0 0 0 0 0 0 0 0 0
0 0 0 0 0 0 0 0 0 0 0 0 0 0 0 0 0 0 0 0 0 0 0 0 0 0 0 0 0 0 0 0 0 0 0 0 0 0 0 0 0 0 0
0 0 0 0 0 0 0 0 0 0 0 0 0 0 0 0 0 0 0 0 0 0 0 0 0 0 0 0 0 0 0 0 0 0 0 0 0 0 0 0 0 0 0
0 0 0 0 0 0 0 0 0 0 0 0 0 0 0 0 0 0 0 0 0 0 0 0 0 0 0 0 0 0 0 0 0 0 0 0 0 0 0 0 0 0 0
0 0 0 0 0 0 0 0 0 0 0 0 0 0 0 0 0 0 0 0 0 0 0 0 0 0 0 0 0 0 0 0 0 0 0 0 0 0 0 0 0 0 0
Wind_Speed
1 1 7 9 10 10 11 11 11 11 12 12 12 12 13 12 12 12 12 12 11 11 10 10 10 10 10 10 9 9 9 8 8 9 9 9 9 9 9 8 7 5 8
3 3 9 10 11 11 11 11 11 11 11 11 11 12 12 11 11 11 11 11 11 10 10 10 9 9 9 9 9 9 8 8 7 8 8 8 8 8 9 8 7 5 7
4 4 7 10 11 11 11 11 11 11 11 11 11 11 11 10 10 10 10 10 10 10 9 9 8 8 8 7 7 7 7 7 7 7 7 3 4 7 8 8 8 8 7
6 4 6 10 11 11 11 11 11 11 11 11 10 10 10 10 9 9 9 9 9 9 9 8 7 7 7 6 7 6 6 6 6 6 3 2 3 6 7 7 7 7 7
6 4 7 11 12 11 11 11 11 11 10 10 10 9 9 8 8 8 8 8 8 8 7 7 7 6 6 5 5 5 6 6 7 6 3 3 2 6 7 7 7 7 6
6 4 6 11 12 11 10 11 11 10 10 9 9 9 8 8 8 7 7 7 7 7 7 6 5 5 5 5 5 5 6 7 6 3 2 2 2 6 7 7 7 6 6
5 4 6 11 11 11 10 10 10 10 9 9 8 8 8 7 7 7 6 7 7 7 6 5 4 4 4 4 4 4 6 7 4 2 2 2 3 6 7 7 7 6 6
7 5 5 11 11 10 10 9 9 9 9 8 7 7 7 7 7 6 6 6 6 6 6 5 3 3 3 3 4 4 5 6 5 4 3 2 4 7 7 7 7 6 6
6 5 3 4 6 9 9 8 8 8 7 7 6 6 6 6 6 6 6 6 5 5 5 4 3 3 3 3 4 5 6 7 4 2 3 2 5 7 7 7 7 7 7
5 4 4 3 3 3 3 6 6 6 5 5 5 4 4 4 4 4 4 4 4 5 4 3 2 3 2 3 3 5 7 6 3 2 2 3 7 7 7 7 7 7 7
5 4 4 3 3 2 2 3 3 3 3 3 2 3 3 1 1 1 3 4 3 3 3 1 1 2 2 3 4 5 6 2 3 2 1 5 7 8 7 7 7 7 7
5 4 4 4 4 3 2 2 0 0 0 0 0 1 1 1 0 1 1 2 2 2 1 1 1 2 2 2 3 4 2 3 3 2 3 7 8 8 8 7 7 7 7
5 5 5 4 4 3 1 1 0 0 0 0 0 1 1 1 1 1 1 1 1 2 2 3 2 1 1 1 1 2 2 2 2 2 3 8 8 8 8 8 8 8 8
5 4 4 4 3 2 2 1 1 1 0 0 1 2 2 1 1 1 0 0 1 1 1 2 1 2 2 2 3 3 3 2 2 2 3 8 8 9 9 8 8 8 9
5 5 4 4 4 3 2 1 2 1 1 1 1 1 3 2 2 1 1 1 1 1 1 2 2 3 3 4 4 5 4 4 3 3 2 8 9 9 9 9 9 9 9
5 4 4 4 4 4 3 3 2 1 2 2 2 2 2 2 2 2 1 1 1 1 2 2 3 3 3 4 4 4 4 4 3 3 3 5 9 9 9 9 9 9 9
4 4 5 5 5 5 4 4 2 2 3 3 2 2 3 3 3 3 2 2 1 2 3 3 4 4 4 5 5 5 4 3 3 3 3 3 4 7 10 11 11 11 11
5 5 5 6 5 5 4 4 3 3 3 3 3 3 3 3 4 3 3 2 2 3 3 3 3 4 4 4 4 4 4 3 4 3 3 3 3 4 7 11 12 12 12
6 6 5 5 5 5 4 4 4 3 4 3 3 3 3 4 4 3 3 2 3 3 3 3 3 3 4 4 4 4 4 3 3 4 3 3 3 3 3 7 12 12 13
6 6 6 5 5 5 4 4 3 4 3 3 3 3 4 3 4 4 3 3 4 4 3 3 4 3 3 3 6 5 4 4 4 4 3 3 3 4 4 5 5 7 13
6 6 5 5 4 4 3 3 3 2 2 2 3 4 4 4 4 4 3 3 3 3 3 4 3 4 3 3 4 4 4 5 5 4 3 3 4 4 4 4 4 4 5
7 6 5 5 4 4 3 3 2 2 1 1 2 4 4 4 4 4 4 3 3 4 4 3 3 3 2 2 3 3 2 4 4 5 4 4 4 4 5 6 5 5 4
7 7 6 5 5 4 4 4 3 3 3 3 3 3 3 4 4 4 4 4 3 3 3 3 3 4 2 1 2 3 3 2 1 3 4 4 4 4 4 4 5 5 5
8 7 7 6 5 5 6 6 5 3 2 1 0 1 2 4 4 4 4 4 4 3 3 2 3 3 3 1 1 1 2 4 3 1 3 3 4 5 4 4 4 5 5
8 7 7 6 5 5 5 6 6 4 2 1 1 2 3 3 3 4 4 4 4 3 3 3 3 3 2 2 1 1 3 3 3 4 1 2 3 3 3 3 3 4 5
6 7 7 7 5 5 6 6 6 5 4 4 2 2 1 2 2 3 4 4 3 3 3 3 4 4 3 3 2 2 2 2 2 3 3 1 1 2 3 3 3 3 3
Wind_Direction
28 97 109 111 106 105 103 100 98 99 99 98 99 101 100 99 98 97 96 96 94 92 92 93 92 91 93 92 92 92 91 90 90 91 91 89 86 83 83 84 79 74 82
141 115 108 108 104 104 103 102 99 98 98 98 99 102 102 101 99 98 97 98 98 96 93 93 93 92 91 90 92 91 88 85 84 86 84 82 83 84 84 83 79 80 82
112 103 102 103 102 102 100 100 99 99 98 97 97 100 101 103 102 101 100 99 99 99 96 94 93 93 91 89 88 87 82 75 78 85 84 67 76 82 82 81 78 75 77
116 107 106 105 102 99 99 99 99 100 99 99 99 100 100 102 104 105 106 106 105 104 102 100 95 92 87 83 83 81 74 68 77 87 77 59 71 83 82 79 75 72 72
107 105 113 109 105 102 100 99 99 99 100 100 101 102 101 103 105 105 107 111 109 110 110 107 104 98 90 82 81 77 68 69 82 81 71 61 66 90 86 79 72 71 68
111 109 115 113 110 106 104 102 101 101 101 103 104 104 105 105 106 105 110 115 118 119 117 113 111 107 95 83 81 72 66 70 79 77 73 76 81 93 89 80 73 68 61
126 124 121 118 116 114 113 110 107 107 107 106 106 107 109 111 108 109 114 116 118 120 120 120 119 110 93 83 82 76 68 76 88 90 77 74 89 91 86 78 70 63 58
139 136 128 124 124 125 123 119 115 111 109 109 111 111 112 111 113 117 118 120 120 122 124 123 121 116 88 74 69 69 70 76 85 102 86 76 93 89 83 75 67 60 54
140 137 134 134 130 131 129 125 123 120 116 114 113 116 118 117 116 120 122 123 126 127 127 123 118 115 94 78 66 60 71 79 83 95 101 85 94 88 79 70 64 60 54
143 148 151 145 134 134 138 142 140 137 131 127 125 121 118 120 122 127 130 134 137 132 131 125 121 111 87 74 71 68 78 77 70 76 78 92 90 85 76 69 63 61 56
152 163 166 168 175 176 182 168 146 145 144 135 127 136 118 89 71 112 145 149 150 145 137 120 118 87 68 65 67 73 76 76 72 64 69 95 90 82 75 68 62 60 56
164 179 184 183 189 194 195 135 118 208 155 159 150 153 133 139 194 151 155 156 143 131 102 53 49 42 49 48 60 72 79 84 70 60 80 91 84 78 73 68 62 57 53
167 171 178 183 185 182 177 156 137 10 10 333 164 156 134 115 104 86 40 14 26 41 17 8 15 34 43 56 74 88 98 84 69 57 71 81 78 76 70 66 62 56 52
142 149 157 166 154 156 149 142 131 129 123 124 146 138 127 119 116 120 118 60 28 21 27 26 31 50 62 77 97 102 99 91 84 65 68 74 72 69 66 66 65 61 53
124 130 140 133 127 129 117 111 105 116 114 111 91 96 124 128 140 144 129 99 76 64 60 59 62 71 79 78 95 106 103 98 90 71 56 69 67 62 61 64 63 60 54
123 119 113 112 115 113 106 98 92 86 71 58 57 72 108 123 128 124 109 94 77 86 93 88 81 83 84 84 85 93 98 99 92 81 61 58 61 57 52 56 56 53 51
132 118 116 116 106 102 98 96 86 77 71 55 53 63 83 105 116 110 101 83 72 86 89 82 77 71 76 77 76 86 90 89 98 87 67 49 44 50 53 51 50 48 46
136 125 123 117 107 102 96 91 83 78 74 62 58 60 65 79 93 94 93 83 90 92 92 90 82 78 72 74 73 72 74 74 81 85 71 57 43 43 48 51 47 43 42
142 132 122 121 115 105 95 90 82 73 66 58 54 53 55 66 82 94 94 91 90 84 84 98 84 94 90 82 79 65 58 62 61 72 69 62 55 51 43 47 45 41 38
142 136 130 124 116 105 91 82 64 54 48 46 44 46 52 57 72 86 91 93 93 87 79 85 88 78 86 87 82 65 45 45 49 50 53 53 53 56 47 44 32 33 36
141 138 139 133 129 116 105 100 90 72 42 37 36 49 55 59 71 82 90 88 91 95 100 101 92 80 70 87 82 55 30 34 43 37 38 51 50 49 52 46 35 26 23
152 151 146 142 143 140 134 133 131 124 89 59 29 41 47 59 68 89 97 99 96 93 85 88 98 97 77 86 111 97 49 17 15 22 27 52 48 42 49 50 39 34 27
158 163 159 154 147 139 129 109 86 63 43 34 30 26 23 50 66 80 93 99 97 101 104 103 114 120 117 40 91 134 136 157 25 2 19 33 40 47 43 41 40 31 34
165 161 154 151 143 139 132 124 126 124 127 164 112 50 31 44 62 78 86 91 94 97 102 104 108 114 121 110 32 62 124 142 135 90 2 11 36 43 40 46 37 30 34
158 156 155 147 140 136 135 136 132 130 144 131 81 74 49 34 52 73 85 91 92 93 99 95 94 96 107 123 119 101 82 71 93 123 112 8 22 18 26 35 36 33 32
153 150 148 144 143 140 136 136 139 146 144 129 118 103 58 31 36 54 79 84 91 96 100 102 98 97 95 94 90 92 116 121 129 119 124 111 59 2 11 19 30 29 32